Tracking 18850 objects as of 22-Nov-2017
HD Live streaming from Space Station
objects crossing your sky now

COSMOS 827

Track COSMOS 827 now!
10-day predictions
COSMOS 827 is classified as:


NORAD ID: 8891
Int'l Code: 1976-054C
Perigee: 1,419.3 km
Apogee: 1,496.8 km
Inclination: 74.0 °
Period: 114.9 minutes
Semi major axis: 7829 km
RCS: 0.6693 m2 (medium)
Launch date: June 15, 1976
Source: Commonwealth of Independent States (former USSR) (CIS)
Launch site: PLESETSK MISSILE AND SPACE COMPLEX (PKMTR)
aabbcc
Your satellite tracking list
Your tracking list is empty




NASA's NSSDC Master Catalog

Two Line Element Set (TLE):
1  8891U 76054C   17325.59967192 -.00000004 +00000-0 +78549-4 0  9996
2  8891 074.0021 005.7215 0049521 321.8355 153.1183 12.53260866313525
Source of the keplerian elements: AFSPC